PRSC-HS1

operational
NORAD ID: 66053 Int'l Des: 2025-234 Owner: SUPA Country: PK
LEOCIRCULARRETROGRADESSO

About PRSC-HS1

Description loading...

Live Position

Loading 3D Globe...

Upcoming Passes

Altitude History

Altitude vs Time

uPlot chart will show altitude changes over time

Two-Line Element Set

1 66053U 25234A 25318.81434414 .00035401 00000-0 14832-2 0 9997
2 66053 97.4604 24.2833 0014684 192.4028 167.6849 15.23344706 4069
Epoch: Nov 14, 2025 • Age: 7 hours

Current Status

Altitude 508.0 km
Velocity 7.61 km/s
Sub-Earth Point -51.47°S, 97.75°E
Launch Date Oct 19, 2025
Age 27 days
Type other

Technical Details

Classification Payload
Mass 400.00 kg
Dry Mass 400.00 kg
Total Mass 400.00 kg
Length 1.00 m
Diameter 1.00 m
Span 4.00 m
Shape Box+2 pan
Manufacturer SECM
Bus Type PRSS
Phase Status In Orbit
Owner/State SUPA/PK

Large Constellations

Loading constellations...